[[{"header":{"parameterUnit":"m.s-1","parameterCategory":1,"la1":30.2991,"la2":30.254,"lo1":-89.0895,"lo2":-89.0444,"dy":0.0017,"dx":0.0017,"nx":28,"ny":28,"refTime":"2025-06-06T09:00:00:Z","depth":0,"parameterNumber":2,"parameterNumberName":"U-component_of_WINDS"},"data":[0,0,0,0,0,0,0,0,0,0,0,0,0,0,0,0,0,0,0,0,0,0,0,0,0,0,0,0,0,0,0,0,0,0,0,0,0,0,0,0,0,0,0,0,0,0,0,0,0,0,0,0,0,0,0,0,0,0,4.1284,4.1285,0,4.1444,4.1446,4.1447,4.1437,4.1434,4.1432,4.143,4.1595,4.1601,4.1608,0,0,0,0,0,0,0,0,0,0,0,0,0,4.0969,4.0975,4.1283,4.1286,4.1288,4.1443,4.1446,4.1448,4.1437,4.1434,4.1431,4.1428,4.1593,4.1601,4.1608,0,0,0,0,0,0,0,0,0,0,0,0,0,4.1115,4.0977,4.1283,4.1301,4.1304,4.1443,4.1446,4.1448,4.1438,4.1434,4.143,4.1427,4.159,4.16,4.161,4.1742,0,0,4.164,4.1644,0,0,0,0,0,0,0,0,4.1107,4.1127,4.1296,4.13,4.1304,4.1416,4.1395,4.1547,4.1438,4.1387,4.1429,4.1425,4.1539,4.1552,4.159,4.175,4.1757,4.1641,4.1647,4.1651,4.1654,0,0,0,0,0,0,0,4.1097,4.112,4.1347,4.1299,4.1303,4.1301,4.1318,4.1424,4.1481,4.1391,4.1391,4.141,4.154,4.1581,4.1594,4.1759,4.164,4.1649,4.1655,4.1659,4.2035,4.2039,0,0,0,0,0,0,4.1083,4.1112,4.1342,4.1352,4.1195,4.131,4.1328,4.1384,4.1479,4.1491,4.1413,4.1409,4.1566,4.1583,4.16,4.1761,4.1651,4.166,4.1666,4.2031,4.2036,4.204,0,0,0,0,0,0,4.1076,4.1103,4.1335,4.1232,4.1261,4.1319,4.1381,4.1389,4.143,4.1496,4.1506,4.1444,4.1563,4.1586,4.1706,4.1766,4.1665,4.1674,4.2026,4.2032,4.2038,4.2083,0,0,0,0,0,0,4.1067,4.1101,4.1152,4.1233,4.1267,4.1439,4.1385,4.1395,4.1447,4.1443,4.1528,4.1538,4.1562,4.1692,4.1716,4.1778,4.1681,4.2021,4.2029,4.2036,4.2077,4.209,4.2102,0,0,0,0,0,4.1056,4.1158,4.1154,4.1182,4.1331,4.1442,4.1462,4.1487,4.1452,4.1503,4.1545,4.1536,4.1756,4.1704,4.1732,4.1797,4.2017,4.2027,4.2035,4.2071,4.2088,4.2102,0,0,0,0,0,0,4.1083,4.1169,4.1166,4.1297,4.1363,4.144,4.1506,4.1504,4.158,4.1574,4.1602,4.1621,4.1742,4.1782,4.1723,4.193,4.1882,4.1897,4.19,4.1916,4.1928,4.1916,4.169,0,0,0,0,0,4.1104,4.1187,4.1258,4.1368,4.1401,4.1448,4.1497,4.1511,4.158,4.1608,4.1659,4.1726,4.1811,4.1866,4.1947,4.2083,4.2101,4.2142,4.2154,4.2164,4.2176,4.2251,4.227,4.207,4.207,4.2069,0,0,4.1149,4.1207,4.1257,4.1375,4.1427,4.1513,4.1471,4.1564,4.1627,4.1622,4.1738,4.1778,4.1856,4.1984,4.2044,4.2021,4.2236,4.2175,4.2183,4.219,4.2262,4.2281,4.2298,4.2076,4.2075,4.2074,0,0,4.1275,4.1327,4.1423,4.1476,4.1556,4.1586,4.1609,4.1688,4.1714,4.1832,4.1829,4.1906,4.205,4.2105,4.2152,4.2299,4.2293,4.2325,4.239,4.2462,4.2478,4.2492,4.2544,4.2562,4.2337,4.2337,4.2337,0,4.1321,4.1449,4.1473,4.1567,4.1618,4.1617,4.1715,4.1765,4.1867,4.1903,4.1877,4.2058,4.211,4.2251,4.2287,4.2325,4.2353,4.2315,4.2473,4.2488,4.2501,4.2551,4.257,4.234,4.234,4.234,4.2339,0,4.1501,4.1591,4.1659,4.1757,4.1817,4.1912,4.1951,4.2009,4.2017,4.2051,4.217,4.2233,4.2326,4.2361,4.2371,4.2504,4.2487,4.2467,4.2419,4.2523,4.257,4.259,4.2345,4.2344,4.2343,4.2342,0,0,4.1648,4.1758,4.1783,4.1827,4.1915,4.1984,4.208,4.2171,4.2219,4.229,4.237,4.2493,4.2474,4.2528,4.2544,4.2607,4.2719,4.2579,4.2581,4.2602,4.2869,4.2883,4.2905,4.2715,4.2719,4.2722,4.2862,0,4.1782,4.195,4.1975,4.2124,4.2206,4.2206,4.2289,4.2352,4.2386,4.2461,4.2499,4.2585,4.2554,4.2586,4.2649,4.2692,4.2772,4.2682,4.279,4.2794,4.277,4.293,4.2945,4.3074,4.2881,4.2884,4.2886,0,4.1961,4.2035,4.2192,4.2268,4.2303,4.2377,4.2463,4.2535,4.2606,4.2626,4.2686,4.2694,4.2793,4.2741,4.2878,4.2816,4.2862,4.2889,4.2895,4.2905,4.2846,4.2944,4.3116,4.3135,4.2916,4.2913,4.2911,0,4.2051,4.2191,4.2303,4.2341,4.2432,4.2484,4.2525,4.2593,4.2646,4.2721,4.2756,4.2841,4.2888,4.2955,4.2986,4.2945,4.312,4.3071,4.314,4.3139,4.3176,4.3173,4.3358,4.3207,4.3207,4.3206,4.3206,0,4.2198,4.2294,4.2345,4.2413,4.2521,4.2548,4.2654,4.2693,4.2753,4.283,4.2835,4.2907,4.2944,4.3021,4.3046,4.3155,4.3177,4.3196,4.3201,4.3195,4.3193,4.3225,4.3217,4.3212,4.321,4.3209,4.3209,0,4.2317,4.2355,4.2477,4.2553,4.2575,4.265,4.2716,4.2783,4.2816,4.2913,4.2937,4.299,4.3081,4.3119,4.3231,4.3248,4.3373,4.3372,4.3349,4.335,4.3417,4.341,4.3628,4.3658,4.3488,4.3489,4.3491,0,4.2408,4.2482,4.2566,4.2617,4.2659,4.2742,4.2796,4.2826,4.2882,4.2969,4.3025,4.3116,4.3191,4.3337,4.3385,4.3471,4.3472,4.3542,4.3485,4.3476,4.3472,4.3467,4.3474,4.3553,4.3554,4.3556,4.3557,0,4.2565,4.258,4.2658,4.2742,4.2806,4.2874,4.294,4.2982,4.3023,4.3086,4.3179,4.3236,4.3351,4.3441,4.353,4.3572,4.3571,4.3575,4.3595,4.3589,4.3572,4.3581,4.3377,4.3569,4.3568,4.3567,4.3567,4.3566,4.2673,4.2738,4.2807,4.2893,4.2946,4.3008,4.3074,4.3115,4.3193,4.3288,4.3302,4.3401,4.3471,4.3589,4.3635,4.3713,4.3695,4.3725,4.3733,4.3739,4.3743,4.356,4.373,4.373,4.3729,4.3729,4.3729,0,4.2829,4.2874,4.2952,4.3045,4.3113,4.3106,4.3179,4.3236,4.3323,4.3388,4.3461,4.3567,4.3655,4.371,4.3799,4.3851,4.3853,4.3873,4.3869,4.3879,4.3755,4.3728,4.387,4.387,4.387,4.387,4.387,4.387,4.2918,4.3028,4.3051,4.3187,4.3231,4.3328,4.337,4.3427,4.3479,4.3598,4.367,4.3705,4.3767,4.3859,4.3939,4.3954,4.3985,4.4007,4.402,4.3902,4.3888,4.3874,4.3849,4.4014,4.4014,4.4137,4.4138,4.4139]},{"header":{"parameterUnit":"m.s-1","parameterCategory":1,"la1":30.2991,"la2":30.254,"lo1":-89.0895,"lo2":-89.0444,"dy":0.0017,"dx":0.0017,"nx":28,"ny":28,"refTime":"2025-06-06T09:00:00:Z","depth":0,"parameterNumber":3,"parameterNumberName":"V-component_of_WINDS"},"data":[0,0,0,0,0,0,0,0,0,0,0,0,0,0,0,0,0,0,0,0,0,0,0,0,0,0,0,0,0,0,0,0,0,0,0,0,0,0,0,0,0,0,0,0,0,0,0,0,0,0,0,0,0,0,0,0,0,0,1.095,1.0951,0,1.1015,1.1015,1.1016,1.1006,1.1005,1.1004,1.1003,1.1071,1.1074,1.1077,0,0,0,0,0,0,0,0,0,0,0,0,0,1.082,1.0822,1.095,1.0951,1.0952,1.1015,1.1015,1.1016,1.1006,1.1005,1.1003,1.1002,1.107,1.1074,1.1077,0,0,0,0,0,0,0,0,0,0,0,0,0,1.088,1.0823,1.095,1.0954,1.0955,1.1014,1.1015,1.1017,1.1006,1.1005,1.1003,1.1001,1.1069,1.1073,1.1077,1.1137,0,0,1.1091,1.1092,0,0,0,0,0,0,0,0,1.0876,1.0884,1.0953,1.0954,1.0955,1.1,1.0995,1.1057,1.1007,1.0987,1.1003,1.1001,1.1049,1.1055,1.1071,1.1141,1.1144,1.1091,1.1094,1.1095,1.1097,0,0,0,0,0,0,0,1.0872,1.0882,1.0976,1.0954,1.0955,1.0953,1.096,1.1006,1.1027,1.0989,1.0988,1.0996,1.105,1.1067,1.1072,1.1145,1.1091,1.1095,1.1097,1.1099,1.1267,1.1269,0,0,0,0,0,0,1.0866,1.0878,1.0974,1.0978,1.0911,1.0957,1.0964,1.0988,1.1026,1.103,1.0997,1.0995,1.106,1.1067,1.1075,1.1148,1.1095,1.1099,1.1102,1.1265,1.1267,1.1269,0,0,0,0,0,0,1.0864,1.0875,1.0971,1.0928,1.094,1.0961,1.0987,1.099,1.1007,1.1032,1.1036,1.1011,1.1059,1.1069,1.1122,1.115,1.1101,1.1105,1.1263,1.1266,1.1268,1.1294,0,0,0,0,0,0,1.086,1.0874,1.0897,1.0928,1.0942,1.1017,1.0989,1.0992,1.1014,1.1012,1.1046,1.1051,1.1059,1.1115,1.1126,1.1155,1.1109,1.126,1.1264,1.1267,1.1291,1.1298,1.1303,0,0,0,0,0,1.0855,1.0902,1.0898,1.091,1.0971,1.1018,1.1026,1.1034,1.1016,1.104,1.1056,1.1049,1.1145,1.1121,1.1133,1.1164,1.1259,1.1263,1.1267,1.1288,1.1296,1.1303,0,0,0,0,0,0,1.0875,1.0906,1.0902,1.096,1.0987,1.1016,1.1046,1.1042,1.1075,1.1071,1.108,1.1088,1.1142,1.1158,1.1131,1.1224,1.1199,1.1206,1.1211,1.1219,1.1225,1.1221,1.1112,0,0,0,0,0,1.0885,1.092,1.0947,1.0995,1.1009,1.1025,1.1046,1.1049,1.1077,1.1089,1.1109,1.1137,1.1173,1.1197,1.1231,1.1293,1.13,1.132,1.1326,1.1331,1.1337,1.1371,1.138,1.1283,1.1283,1.1283,0,0,1.0908,1.093,1.0952,1.1,1.102,1.1057,1.1035,1.1075,1.1102,1.1095,1.1146,1.1162,1.1194,1.1251,1.1277,1.1266,1.1365,1.1336,1.134,1.1343,1.1376,1.1385,1.1393,1.1286,1.1286,1.1285,0,0,1.0969,1.0989,1.1032,1.1053,1.1084,1.1094,1.1105,1.1135,1.1145,1.1196,1.1191,1.1224,1.1287,1.1309,1.1329,1.1398,1.1393,1.1409,1.1441,1.1474,1.1482,1.1489,1.1514,1.1523,1.1414,1.1415,1.1415,0,1.0995,1.1049,1.1055,1.1095,1.1116,1.111,1.1154,1.1174,1.1216,1.1231,1.1217,1.1295,1.1315,1.1378,1.1395,1.1411,1.1423,1.1406,1.148,1.1487,1.1493,1.1517,1.1527,1.1416,1.1416,1.1416,1.1416,0,1.1079,1.1117,1.1148,1.1187,1.1211,1.1253,1.1266,1.129,1.1291,1.1303,1.1355,1.138,1.1419,1.1434,1.1436,1.1497,1.1489,1.1478,1.1454,1.1504,1.1527,1.1536,1.1419,1.1418,1.1418,1.1417,0,0,1.1155,1.1196,1.1207,1.1225,1.1258,1.1288,1.133,1.1367,1.1388,1.1417,1.1452,1.1504,1.1494,1.1516,1.152,1.1549,1.1602,1.1534,1.1534,1.1546,1.1672,1.1681,1.1692,1.1598,1.16,1.1602,1.1669,0,1.122,1.1293,1.1299,1.1365,1.14,1.1394,1.143,1.1455,1.1467,1.1499,1.1513,1.155,1.1532,1.1546,1.1574,1.159,1.1628,1.1585,1.1633,1.1634,1.1626,1.1704,1.1714,1.1777,1.1678,1.168,1.1681,0,1.1306,1.1336,1.1405,1.1433,1.1448,1.1481,1.1516,1.1546,1.1574,1.1581,1.1605,1.1605,1.1648,1.1622,1.1682,1.1652,1.1672,1.1683,1.1686,1.1692,1.1662,1.1713,1.1797,1.1807,1.1695,1.1694,1.1693,0,1.1356,1.1413,1.1462,1.1477,1.1511,1.1534,1.155,1.1576,1.1598,1.1628,1.1643,1.1678,1.1698,1.1726,1.1735,1.1715,1.1795,1.1769,1.1803,1.1803,1.1822,1.1821,1.1911,1.1832,1.1832,1.1832,1.1832,0,1.1429,1.1471,1.1485,1.1515,1.1563,1.1569,1.1617,1.1631,1.1654,1.1687,1.1684,1.1715,1.1725,1.1758,1.1766,1.1815,1.1824,1.1831,1.1833,1.1832,1.1831,1.1846,1.1843,1.1834,1.1834,1.1833,1.1833,0,1.1493,1.1504,1.1557,1.1584,1.1592,1.1626,1.1649,1.1679,1.1689,1.1732,1.1742,1.1759,1.1798,1.181,1.1857,1.1862,1.192,1.1917,1.191,1.1911,1.1944,1.1941,1.2049,1.2063,1.1974,1.1974,1.1975,0,1.1539,1.1572,1.1602,1.1624,1.164,1.1675,1.1697,1.1704,1.1727,1.1761,1.1787,1.1825,1.1856,1.1918,1.1936,1.1972,1.197,1.2005,1.1976,1.1974,1.1972,1.1971,1.1974,1.2012,1.2013,1.2013,1.2014,0,1.1621,1.1624,1.1656,1.169,1.1716,1.1743,1.177,1.1788,1.1798,1.1825,1.1864,1.1888,1.1935,1.1974,1.201,1.2026,1.2023,1.2023,1.2033,1.2033,1.2028,1.2032,1.1927,1.2021,1.202,1.202,1.2019,1.2019,1.1678,1.1707,1.1732,1.1768,1.1788,1.1812,1.1841,1.1855,1.1888,1.1927,1.1928,1.1971,1.1998,1.2046,1.2064,1.2098,1.2088,1.2102,1.2106,1.211,1.2113,1.2021,1.2105,1.2104,1.2104,1.2104,1.2104,0,1.176,1.1776,1.1808,1.1845,1.1873,1.1865,1.1893,1.1918,1.1955,1.198,1.201,1.2055,1.2092,1.2111,1.2148,1.2172,1.2171,1.2181,1.218,1.2184,1.2119,1.2107,1.2181,1.2181,1.2181,1.2181,1.2181,1.2181,1.1806,1.1854,1.1861,1.1919,1.1935,1.1976,1.1993,1.2015,1.2035,1.2085,1.2116,1.2128,1.2151,1.2189,1.2222,1.2227,1.2241,1.2253,1.2257,1.2196,1.2189,1.2181,1.217,1.2256,1.2256,1.2319,1.232,1.232]}]]